VK2ADG-2 Weather Reports


time (UTC)temp
C
wind
direction
speed
KPH
gust
KPH
rain 1hr
cm
rain 24hr
cm
rain mn
cm
humidity
%
barometer
mb
20260510011050 18 163 1.6 6.4 0.00 0.00 0.00 61 1028.1
20260510010028 17 139 1.6 4.8 0.00 0.00 0.00 64 1028.1
20260510005025 17 155 4.8 11.3 0.00 0.00 0.00 65 1028.2
20260510004023 17 168 1.6 4.8 0.00 0.00 0.00 65 1028.3
20260510003021 16 44 1.6 6.4 0.00 0.00 0.00 67 1028.3
20260510002018 16 110 3.2 6.4 0.00 0.00 0.00 69 1028.3
20260510001036 15 99 4.8 9.7 0.00 0.00 0.00 70 1028.4
20260510000033 16 57 3.2 6.4 0.00 0.00 0.00 70 1028.3
20260509235031 15 69 4.8 6.4 0.00 0.00 0.00 72 1028.2
20260509234029 14 57 3.2 8.0 0.00 0.00 0.00 74 1028.3
20260509233046 14 77 3.2 6.4 0.00 0.00 0.00 75 1028.2
20260509232025 14 109 1.6 4.8 0.00 0.00 0.00 76 1028.3
20260509231041 13 93 1.6 4.8 0.00 0.00 0.00 78 1028.2
20260509230019 12 131 1.6 4.8 0.00 0.00 0.00 80 1028.1
20260509225016 12 95 1.6 4.8 0.00 0.00 0.00 81 1027.9
20260509224034 11 106 1.6 4.8 0.00 0.00 0.00 82 1027.8
20260509223052 11 122 1.6 4.8 0.00 0.00 0.00 83 1027.5
20260509222035 11 85 0.0 3.2 0.00 0.00 0.00 85 1027.5
20260509221027 10 18 3.2 4.8 0.00 0.00 0.00 90 1027.4
20260509220024 9 16 1.6 3.2 0.00 0.00 0.00 95 1027.2
20260509215022 8 130 1.6 4.8 0.00 0.00 0.00 96 1027.1
20260509214020 7 105 1.6 4.8 0.00 0.00 0.00 96 1027.1
20260509213017 7 93 0.0 3.2 0.00 0.00 0.00 96 1027.0
20260509212035 7 80 0.0 3.2 0.00 0.00 0.00 96 1027.0
20260509211032 7 124 0.0 3.2 0.00 0.00 0.00 96 1026.9
20260509210030 6 132 1.6 3.2 0.00 0.00 0.00 96 1026.9
20260509205028 6 158 0.0 3.2 0.00 0.00 0.00 96 1026.9
20260509204045 7 195 1.6 4.8 0.00 0.00 0.00 96 1026.7
20260509203023 7 167 3.2 4.8 0.00 0.00 0.00 95 1026.6
20260509202041 7 187 1.6 3.2 0.00 0.00 0.00 95 1026.6
20260509201038 7 186 3.2 4.8 0.00 0.00 0.00 95 1026.4
20260509200056 7 160 3.2 4.8 0.00 0.00 0.00 95 1026.3
20260509195033 6 175 0.0 3.2 0.00 0.00 0.00 95 1026.1
20260509194112 7 49 0.0 3.2 0.00 0.00 0.00 94 1026.1
20260509193029 7 41 0.0 3.2 0.00 0.00 0.00 94 1026.0
20260509192026 7 341 1.6 3.2 0.00 0.00 0.00 94 1025.8
20260509191024 7 353 3.2 4.8 0.00 0.00 0.00 94 1025.7
20260509190021 6 301 0.0 1.6 0.00 0.00 0.00 93 1025.6
20260509185019 7 0.0 1.6 0.00 0.00 0.00 93 1025.5
20260509184016 7 24 0.0 3.2 0.00 0.00 0.00 93 1025.4
20260509183034 7 47 0.0 3.2 0.00 0.00 0.00 93 1025.3
20260509182032 8 320 0.0 1.6 0.00 0.00 0.00 93 1025.2
20260509181049 8 295 1.6 3.2 0.00 0.00 0.00 94 1025.1
20260509180047 7 306 1.6 3.2 0.00 0.00 0.00 94 1024.9
20260509175025 7 109 1.6 3.2 0.00 0.00 0.00 93 1025.1
20260509174022 7 349 1.6 3.2 0.00 0.00 0.00 94 1025.0
20260509173040 7 328 1.6 3.2 0.00 0.00 0.00 94 1025.0
20260509172058 8 14 0.0 3.2 0.00 0.00 0.00 94 1025.0
20260509171035 8 48 0.0 1.6 0.00 0.00 0.00 94 1025.2
20260509170033 8 0.0 0.0 0.00 0.00 0.00 94 1025.1
20260509165030 7 0.0 1.6 0.00 0.00 0.00 93 1025.1
20260509164028 8 0.0 1.6 0.00 0.00 0.00 94 1025.1
20260509163025 8 112 0.0 1.6 0.00 0.00 0.00 94 1025.1
20260509162023 8 61 0.0 1.6 0.00 0.00 0.00 93 1025.0
20260509160019 8 148 0.0 3.2 0.00 0.00 0.00 93 1025.0
20260509155016 8 352 0.0 3.2 0.00 0.00 0.00 92 1025.1
20260509154034 8 337 0.0 1.6 0.00 0.00 0.00 92 1025.1
20260509153031 8 150 0.0 1.6 0.00 0.00 0.00 93 1025.0
20260509152029 8 0.0 0.0 0.00 0.00 0.00 91 1025.1
20260509151027 8 153 0.0 3.2 0.00 0.00 0.00 92 1025.0
20260509150024 8 0.0 1.6 0.00 0.00 0.00 90 1025.1
20260509145022 8 0.0 0.0 0.00 0.00 0.00 89 1025.0
20260509144019 9 153 0.0 1.6 0.00 0.00 0.00 89 1025.2
20260509143017 9 197 0.0 1.6 0.00 0.00 0.00 89 1025.1
20260509142034 9 198 0.0 3.2 0.00 0.00 0.00 90 1025.1
20260509141032 8 194 0.0 3.2 0.00 0.00 0.00 89 1025.2
20260509140030 8 0.0 1.6 0.00 0.00 0.00 88 1025.2
20260509135028 9 143 0.0 1.6 0.00 0.00 0.00 88 1025.2
20260509134025 10 196 0.0 3.2 0.00 0.00 0.00 87 1025.2
20260509133023 10 0.0 0.0 0.00 0.00 0.00 86 1025.2
20260509132020 10 0.0 3.2 0.00 0.00 0.00 85 1025.2
20260509131018 10 0.0 1.6 0.00 0.00 0.00 84 1025.2
20260509130036 10 175 0.0 3.2 0.00 0.00 0.00 84 1025.2
20260509125033 10 0.0 1.6 0.00 0.00 0.00 83 1025.1
20260509124111 10 252 0.0 3.2 0.00 0.00 0.00 84 1025.1
20260509123029 10 268 0.0 1.6 0.00 0.00 0.00 84 1025.1
20260509122026 10 0.0 1.6 0.00 0.00 0.00 82 1025.1
20260509121024 10 0.0 1.6 0.00 0.00 0.00 80 1025.0
20260509120022 11 0.0 1.6 0.00 0.00 0.00 80 1025.1
20260509115019 11 273 0.0 1.6 0.00 0.00 0.00 81 1025.1
20260509114017 10 271 1.6 3.2 0.00 0.00 0.00 83 1025.1
20260509113034 10 0.0 1.6 0.00 0.00 0.00 82 1025.0
20260509112032 11 0.0 1.6 0.00 0.00 0.00 80 1025.0
20260509111029 11 219 0.0 3.2 0.00 0.00 0.00 80 1025.1
20260509110047 10 0.0 1.6 0.00 0.00 0.00 80 1025.0
20260509105024 11 0.0 1.6 0.00 0.00 0.00 80 1025.1
20260509104022 11 0.0 0.0 0.00 0.00 0.00 78 1025.0
20260509103020 11 292 0.0 3.2 0.00 0.00 0.00 77 1025.0
20260509102017 11 0.0 1.6 0.00 0.00 0.00 75 1024.9
20260509101035 12 0.0 1.6 0.00 0.00 0.00 75 1024.9
20260509100032 12 0.0 1.6 0.00 0.00 0.00 74 1025.0
20260509095030 12 269 0.0 3.2 0.00 0.00 0.00 74 1024.9
20260509094028 12 0.0 1.6 0.00 0.00 0.00 74 1025.0
20260509093025 12 261 0.0 3.2 0.00 0.00 0.00 75 1024.9
20260509092023 12 0.0 1.6 0.00 0.00 0.00 74 1024.8
20260509091021 12 0.0 1.6 0.00 0.00 0.00 73 1024.8
20260509090038 13 0.0 1.6 0.00 0.00 0.00 71 1024.6
20260509085036 13 283 0.0 3.2 0.00 0.00 0.00 70 1024.6
20260509084034 13 0.0 1.6 0.00 0.00 0.00 69 1024.4
20260509083031 13 263 0.0 3.2 0.00 0.00 0.00 68 1024.3
20260509082029 13 246 1.6 3.2 0.00 0.00 0.00 67 1024.2
20260509081026 14 247 1.6 3.2 0.00 0.00 0.00 66 1024.1
20260509080024 14 245 1.6 3.2 0.00 0.00 0.00 64 1024.0
20260509075024 15 253 1.6 3.2 0.00 0.00 0.00 64 1023.8
20260509074019 15 249 1.6 3.2 0.00 0.00 0.00 63 1023.7
20260509073017 15 236 1.6 4.8 0.00 0.00 0.00 61 1023.6
20260509072035 16 243 1.6 3.2 0.00 0.00 0.00 60 1023.5
20260509071052 16 237 3.2 9.7 0.00 0.00 0.00 58 1023.3
20260509070030 17 201 4.8 9.7 0.00 0.00 0.00 57 1023.2
20260509065027 17 213 3.2 8.0 0.00 0.00 0.00 56 1023.1
20260509064025 17 206 3.2 8.0 0.00 0.00 0.00 56 1023.1
20260509063022 17 180 4.8 11.3 0.00 0.00 0.00 56 1023.1
20260509062020 17 179 4.8 9.7 0.00 0.00 0.00 55 1023.1
20260509061018 18 190 4.8 9.7 0.00 0.00 0.00 53 1023.0
20260509060035 18 209 3.2 6.4 0.00 0.00 0.00 54 1023.0
20260509055033 18 180 6.4 12.9 0.00 0.00 0.00 53 1023.0
20260509054051 18 180 4.8 11.3 0.00 0.00 0.00 53 1023.0
20260509053029 18 212 4.8 9.7 0.00 0.00 0.00 52 1023.0
20260509052026 18 221 6.4 16.1 0.00 0.00 0.00 52 1023.0
20260509051023 18 198 8.0 17.7 0.00 0.00 0.00 52 1023.0
20260509050041 18 246 4.8 8.0 0.00 0.00 0.00 53 1023.0
20260509045019 19 228 6.4 14.5 0.00 0.00 0.00 52 1023.0
20260509044016 18 229 4.8 12.9 0.00 0.00 0.00 53 1022.9
20260509043034 18 220 4.8 9.7 0.00 0.00 0.00 54 1023.0
20260509042031 18 235 6.4 14.5 0.00 0.00 0.00 54 1023.0
20260509041049 18 264 6.4 11.3 0.00 0.00 0.00 54 1023.0
20260509040027 18 237 6.4 11.3 0.00 0.00 0.00 55 1023.0
20260509035024 18 195 4.8 11.3 0.00 0.00 0.00 53 1023.1
20260509034022 18 245 4.8 12.9 0.00 0.00 0.00 55 1023.2
20260509033040 18 230 6.4 14.5 0.00 0.00 0.00 56 1023.2
20260509032017 18 213 3.2 8.0 0.00 0.00 0.00 56 1023.3
20260509031034 18 227 4.8 9.7 0.00 0.00 0.00 57 1023.5
20260509030033 17 278 3.2 8.0 0.00 0.00 0.00 59 1023.7
20260509025030 17 165 4.8 9.7 0.00 0.00 0.00 60 1023.8
20260509024028 17 125 3.2 6.4 0.00 0.00 0.00 61 1023.9
20260509023025 17 170 4.8 9.7 0.00 0.00 0.00 61 1024.2
20260509022043 17 151 4.8 9.7 0.00 0.00 0.00 64 1024.4
20260509021020 17 171 3.2 6.4 0.00 0.00 0.00 63 1024.6
20260509020018 16 193 4.8 8.0 0.00 0.00 0.00 64 1024.7
20260509015036 16 143 4.8 8.0 0.00 0.00 0.00 64 1024.8
20260509014033 16 152 3.2 6.4 0.00 0.00 0.00 66 1025.0
20260509013031 16 197 4.8 11.3 0.00 0.00 0.00 68 1025.1
20260509012028 15 169 3.2 9.7 0.00 0.00 0.00 69 1025.3